EW7698 Weather Reports


time (UTC)temp
C
wind
direction
speed
KPH
gust
KPH
rain 1hr
cm
rain 24hr
cm
rain mn
cm
humidity
%
barometer
mb
20260506201331 27 233 4.8 16.1 0.00 0.00 0.00 74 1014.6
20260506200838 27 234 3.2 14.5 0.00 0.00 0.00 74 1014.7
20260506200325 27 105 4.8 14.5 0.00 0.00 0.00 74 1014.6
20260506200049 27 222 1.6 14.5 0.00 0.00 0.00 74 1014.7
20260506200010 27 214 1.6 14.5 0.00 0.00 0.00 74 1015.1
20260506195900 27 217 3.2 14.5 0.00 0.00 0.00 74 1014.7
20260506195347 27 349 3.2 12.9 0.00 0.00 0.00 74 1014.7
20260506194833 27 115 1.6 20.9 0.00 0.00 0.00 74 1014.7
20260506194545 26 234 6.4 20.9 0.00 0.00 0.00 73 1014.6
20260506194511 27 83 6.4 20.9 0.00 0.00 0.00 73 1015.0
20260506194341 27 246 6.4 20.9 0.00 0.00 0.00 73 1014.6
20260506193844 27 177 4.8 14.5 0.00 0.00 0.00 73 1014.7
20260506193347 27 293 1.6 8.0 0.00 0.00 0.00 74 1014.8
20260506193025 27 61 1.6 9.7 0.00 0.00 0.00 73 1015.3
20260506193013 27 66 1.6 11.3 0.00 0.00 0.00 73 1014.9
20260506192859 27 98 3.2 11.3 0.00 0.00 0.00 74 1014.9
20260506192324 27 190 1.6 11.3 0.00 0.00 0.00 73 1015.0
20260506191832 27 50 3.2 11.3 0.00 0.00 0.00 73 1015.0
20260506191534 27 59 1.6 12.9 0.00 0.00 0.00 73 1015.0
20260506191527 27 41 1.6 14.5 0.00 0.00 0.00 72 1015.4
20260506191339 27 179 3.2 12.9 0.00 0.00 0.00 73 1015.1
20260506190827 27 70 1.6 12.9 0.00 0.00 0.00 73 1015.2
20260506190401 27 67 1.6 12.9 0.00 0.00 0.00 72 1015.2
20260506190011 27 55 3.2 12.9 0.00 0.00 0.00 71 1015.6
20260506190004 27 60 3.2 12.9 0.00 0.00 0.00 72 1015.2
20260506185829 27 75 3.2 12.9 0.00 0.00 0.00 72 1015.3
20260506185333 27 185 3.2 16.1 0.00 0.00 0.00 73 1015.3
20260506184821 27 251 0.0 16.1 0.00 0.00 0.00 74 1015.4
20260506184550 27 205 6.4 22.5 0.00 0.00 0.00 73 1015.4
20260506184511 27 233 6.4 22.5 0.00 0.00 0.00 72 1015.8
20260506184328 27 136 4.8 22.5 0.00 0.00 0.00 74 1015.6
20260506183836 27 65 6.4 22.5 0.00 0.00 0.00 73 1015.5
20260506183321 27 228 6.4 19.3 0.00 0.00 0.00 73 1015.5
20260506183032 27 227 4.8 19.3 0.00 0.00 0.00 72 1015.6
20260506183017 27 236 4.8 19.3 0.00 0.00 0.00 72 1015.9
20260506182855 27 248 4.8 19.3 0.00 0.00 0.00 72 1015.5
20260506182339 27 142 1.6 14.5 0.00 0.00 0.00 72 1015.6
20260506181825 27 44 0.0 16.1 0.00 0.00 0.00 75 1015.6
20260506181601 27 257 3.2 16.1 0.00 0.00 0.00 74 1015.6
20260506181534 27 193 1.6 16.1 0.00 0.00 0.00 73 1016.0
20260506181332 27 38 4.8 16.1 0.00 0.00 0.00 73 1015.6
20260506180838 27 267 1.6 11.3 0.00 0.00 0.00 74 1015.7
20260506180325 27 232 3.2 16.1 0.00 0.00 0.00 74 1015.7
20260506180058 26 339 3.2 19.3 0.00 0.00 0.00 75 1015.8
20260506180027 26 265 3.2 19.3 0.00 0.00 0.00 73 1016.2
20260506175834 26 240 3.2 19.3 0.00 0.00 0.00 74 1016.0
20260506175340 27 111 6.4 19.3 0.00 0.00 0.00 74 1015.9
20260506174827 26 223 4.8 19.3 0.00 0.00 0.00 74 1016.0
20260506174528 26 266 1.6 12.9 0.00 0.00 0.00 75 1016.1
20260506174508 26 286 3.2 12.9 0.00 0.00 0.00 74 1016.5
20260506174333 26 286 1.6 12.9 0.00 0.00 0.00 75 1016.2
20260506173821 26 240 4.8 12.9 0.00 0.00 0.00 74 1016.3
20260506173328 26 316 3.2 14.5 0.00 0.00 0.00 75 1016.4
20260506173017 26 26 1.6 14.5 0.00 0.00 0.00 76 1016.4
20260506173012 26 6 1.6 16.1 0.00 0.00 0.00 75 1016.8
20260506172834 26 242 3.2 16.1 0.00 0.00 0.00 76 1016.4
20260506172324 26 112 3.2 16.1 0.00 0.00 0.00 76 1016.6
20260506171846 26 62 4.8 16.1 0.00 0.00 0.00 75 1016.6
20260506171545 25 238 0.0 14.5 0.00 0.00 0.00 76 1016.6
20260506171519 25 210 0.0 14.5 0.00 0.00 0.00 75 1017.0
20260506171357 26 63 3.2 14.5 0.00 0.00 0.00 76 1016.5
20260506170822 26 103 1.6 12.9 0.00 0.00 0.00 77 1016.6
20260506170329 25 236 1.6 11.3 0.00 0.00 0.00 77 1016.5
20260506170008 25 220 0.0 12.9 0.00 0.00 0.00 77 1016.5
20260506170004 25 216 0.0 12.9 0.00 0.00 0.00 76 1017.0
20260506165822 25 244 3.2 12.9 0.00 0.00 0.00 77 1016.6
20260506165329 25 236 3.2 12.9 0.00 0.00 0.00 76 1016.7
20260506164836 25 248 1.6 19.3 0.00 0.00 0.00 76 1016.9
20260506164551 25 40 3.2 19.3 0.00 0.00 0.00 76 1016.7
20260506164524 25 91 3.2 19.3 0.00 0.00 0.00 76 1017.1
20260506164340 25 81 1.6 19.3 0.00 0.00 0.00 76 1016.7
20260506163827 25 193 1.6 14.5 0.00 0.00 0.00 76 1016.7
20260506163334 26 247 4.8 14.5 0.00 0.00 0.00 75 1016.8
20260506163039 25 262 0.0 14.5 0.00 0.00 0.00 76 1016.7
20260506163013 25 224 0.0 16.1 0.00 0.00 0.00 75 1017.1
20260506162822 26 280 0.0 14.5 0.00 0.00 0.00 75 1016.7
20260506162328 26 236 4.8 14.5 0.00 0.00 0.00 75 1016.7
20260506161835 26 122 3.2 19.3 0.00 0.00 0.00 75 1016.8
20260506161523 26 67 3.2 19.3 0.00 0.00 0.00 75 1016.9
20260506161519 26 159 3.2 19.3 0.00 0.00 0.00 74 1017.4
20260506161322 26 234 3.2 19.3 0.00 0.00 0.00 74 1017.0
20260506160830 26 74 1.6 12.9 0.00 0.00 0.00 75 1016.9
20260506160334 26 248 1.6 12.9 0.00 0.00 0.00 74 1016.9
20260506160013 26 62 0.0 11.3 0.00 0.00 0.00 73 1016.8
20260506160004 26 70 0.0 11.3 0.00 0.00 0.00 73 1017.3
20260506155841 26 275 3.2 12.9 0.00 0.00 0.00 73 1016.9
20260506155328 26 238 0.0 16.1 0.00 0.00 0.00 73 1017.0
20260506154835 26 311 4.8 14.5 0.00 0.00 0.00 72 1017.1
20260506154555 26 94 4.8 14.5 0.00 0.00 0.00 72 1017.0
20260506154503 26 49 3.2 14.5 0.00 0.00 0.00 72 1017.5
20260506154323 26 151 4.8 14.5 0.00 0.00 0.00 72 1017.0
20260506153856 26 121 1.6 12.9 0.00 0.00 0.00 73 1017.0
20260506153321 26 250 3.2 22.5 0.00 0.00 0.00 74 1017.0
20260506153023 26 277 1.6 22.5 0.00 0.00 0.00 74 1016.9
20260506153007 26 267 1.6 22.5 0.00 0.00 0.00 73 1017.5
20260506152826 26 197 3.2 22.5 0.00 0.00 0.00 74 1017.0
20260506152327 26 44 3.2 9.7 0.00 0.00 0.00 74 1017.1
20260506151834 26 128 1.6 14.5 0.00 0.00 0.00 74 1017.1
20260506151516 25 226 0.0 14.5 0.00 0.00 0.00 73 1017.8
20260506151509 25 237 0.0 14.5 0.00 0.00 0.00 74 1017.1
20260506151342 26 47 1.6 14.5 0.00 0.00 0.00 73 1017.3
20260506150849 26 119 1.6 17.7 0.00 0.00 0.00 74 1017.1
20260506150336 26 252 1.6 17.7 0.00 0.00 0.00 74 1017.1
20260506150028 25 218 1.6 9.7 0.00 0.00 0.00 74 1017.0
20260506150018 25 219 1.6 9.7 0.00 0.00 0.00 73 1017.6
20260506145823 26 148 3.2 9.7 0.00 0.00 0.00 73 1017.0
20260506145330 26 74 1.6 11.3 0.00 0.00 0.00 73 1016.9
20260506144837 26 247 1.6 14.5 0.00 0.00 0.00 73 1016.9
20260506144520 26 216 3.2 14.5 0.00 0.00 0.00 73 1016.9
20260506144506 26 188 1.6 14.5 0.00 0.00 0.00 73 1017.4
20260506144325 26 274 3.2 12.9 0.00 0.00 0.00 73 1016.9
20260506143832 26 204 3.2 14.5 0.00 0.00 0.00 74 1016.7
20260506143339 26 200 1.6 14.5 0.00 0.00 0.00 74 1016.7
20260506143100 26 5 4.8 14.5 0.00 0.00 0.00 74 1016.6
20260506143005 26 46 3.2 14.5 0.00 0.00 0.00 74 1016.6
20260506142828 26 238 3.2 14.5 0.00 0.00 0.00 74 1016.7
20260506142333 26 117 3.2 14.5 0.00 0.00 0.00 75 1016.7
20260506141839 26 215 3.2 14.5 0.00 0.00 0.00 77 1016.7
20260506141600 25 73 0.0 9.7 0.00 0.00 0.00 76 1016.6
20260506141523 25 180 0.0 19.3 0.00 0.00 0.00 76 1017.2
20260506141344 26 271 1.6 19.3 0.00 0.00 0.00 76 1016.7
20260506140854 25 335 3.2 19.3 0.00 0.00 0.00 77 1016.6
20260506140338 25 208 3.2 11.3 0.00 0.00 0.00 78 1016.7
20260506140015 25 82 0.0 8.0 0.00 0.00 0.00 78 1017.1
20260506140005 25 84 0.0 8.0 0.00 0.00 0.00 78 1016.6
20260506135823 25 263 0.0 8.0 0.00 0.00 0.00 79 1016.5
20260506135328 25 30 0.0 8.0 0.00 0.00 0.00 79 1016.5
20260506134900 25 177 1.6 6.4 0.00 0.00 0.00 79 1016.5
20260506134540 24 144 0.0 6.4 0.00 0.00 0.00 79 1016.3
20260506134520 24 354 0.0 17.7 0.00 0.00 0.00 78 1016.7
20260506134326 25 348 0.0 17.7 0.00 0.00 0.00 79 1016.3
20260506133833 25 42 1.6 17.7 0.00 0.00 0.00 78 1016.3
20260506133340 25 238 1.6 9.7 0.00 0.00 0.00 78 1016.3
20260506133046 24 233 1.6 9.7 0.00 0.00 0.00 78 1016.2
20260506133004 24 219 1.6 11.3 0.00 0.00 0.00 78 1016.7
20260506132828 25 87 0.0 11.3 0.00 0.00 0.00 78 1016.2
20260506132335 25 97 3.2 11.3 0.00 0.00 0.00 78 1016.1
20260506131821 25 81 0.0 11.3 0.00 0.00 0.00 78 1016.0
20260506131549 24 53 1.6 11.3 0.00 0.00 0.00 78 1016.1
20260506131511 24 233 0.0 9.7 0.00 0.00 0.00 78 1016.5
20260506131329 25 198 1.6 9.7 0.00 0.00 0.00 79 1016.2
20260506130900 25 51 0.0 9.7 0.00 0.00 0.00 79 1016.2
20260506130326 24 219 3.2 9.7 0.00 0.00 0.00 80 1016.2
20260506130022 24 294 0.0 14.5 0.00 0.00 0.00 80 1016.1
20260506130014 24 298 0.0 14.5 0.00 0.00 0.00 79 1016.6
20260506125832 24 233 1.6 14.5 0.00 0.00 0.00 80 1016.2
20260506125336 24 5 1.6 12.9 0.00 0.00 0.00 80 1016.3
20260506124839 23 218 0.0 9.7 0.00 0.00 0.00 82 1016.3
20260506124514 23 59 1.6 9.7 0.00 0.00 0.00 82 1016.2
20260506124326 23 219 1.6 9.7 0.00 0.00 0.00 82 1016.2
20260506123832 23 279 0.0 11.3 0.00 0.00 0.00 83 1016.2
20260506123338 22 263 1.6 11.3 0.00 0.00 0.00 83 1016.1
20260506123023 22 70 0.0 11.3 0.00 0.00 0.00 83 1016.4
20260506123008 22 75 0.0 11.3 0.00 0.00 0.00 83 1015.9
20260506122826 22 186 1.6 11.3 0.00 0.00 0.00 83 1016.0
20260506122333 22 76 0.0 8.0 0.00 0.00 0.00 83 1016.1
20260506121823 22 267 0.0 11.3 0.00 0.00 0.00 83 1016.1
20260506121511 22 198 1.6 11.3 0.00 0.00 0.00 83 1016.4
20260506121501 22 257 1.6 11.3 0.00 0.00 0.00 83 1015.9
20260506121344 22 5 1.6 6.4 0.00 0.00 0.00 83 1015.9
20260506120830 22 269 1.6 9.7 0.00 0.00 0.00 83 1015.8
20260506120321 22 152 1.6 9.7 0.00 0.00 0.00 83 1015.8
20260506120032 21 271 0.0 8.0 0.00 0.00 0.00 84 1015.7
20260506120025 21 132 0.0 8.0 0.00 0.00 0.00 83 1016.2
20260506115828 22 53 1.6 8.0 0.00 0.00 0.00 84 1015.8
20260506115332 22 270 0.0 8.0 0.00 0.00 0.00 84 1015.7
20260506114820 21 344 0.0 9.7 0.00 0.00 0.00 84 1015.6
20260506114536 21 42 0.0 9.7 0.00 0.00 0.00 84 1015.6
20260506114519 21 218 0.0 9.7 0.00 0.00 0.00 83 1016.0
20260506114348 21 232 0.0 6.4 0.00 0.00 0.00 84 1015.6
20260506113833 21 342 0.0 9.7 0.00 0.00 0.00 84 1015.6
20260506113320 21 279 0.0 11.3 0.00 0.00 0.00 84 1015.6
20260506113024 21 304 1.6 11.3 0.00 0.00 0.00 84 1015.4
20260506113019 21 170 1.6 12.9 0.00 0.00 0.00 84 1015.8
20260506112827 21 254 1.6 11.3 0.00 0.00 0.00 84 1015.4
20260506112334 21 202 1.6 8.0 0.00 0.00 0.00 84 1015.5
20260506111821 21 219 0.0 8.0 0.00 0.00 0.00 84 1015.5
20260506111535 21 265 0.0 6.4 0.00 0.00 0.00 84 1015.5
20260506111524 21 57 0.0 6.4 0.00 0.00 0.00 84 1015.8
20260506111329 21 37 1.6 6.4 0.00 0.00 0.00 84 1015.5
20260506110837 21 11 0.0 4.8 0.00 0.00 0.00 84 1015.5
20260506110322 21 247 0.0 9.7 0.00 0.00 0.00 84 1015.4
20260506110022 21 242 0.0 9.7 0.00 0.00 0.00 84 1015.4
20260506110003 21 244 0.0 9.7 0.00 0.00 0.00 83 1015.8
20260506105823 21 194 1.6 9.7 0.00 0.00 0.00 84 1015.5
20260506105330 21 240 0.0 4.8 0.00 0.00 0.00 83 1015.4
20260506104856 21 288 0.0 4.8 0.00 0.00 0.00 83 1015.4
20260506104600 21 289 0.0 4.8 0.00 0.00 0.00 83 1015.4
20260506104502 21 293 0.0 4.8 0.00 0.00 0.00 83 1015.7
20260506104342 21 290 0.0 0.0 0.00 0.00 0.00 83 1015.5
20260506103829 21 309 0.0 3.2 0.00 0.00 0.00 83 1015.6
20260506103336 21 270 0.0 4.8 0.00 0.00 0.00 83 1015.5
20260506103042 21 330 0.0 4.8 0.00 0.00 0.00 83 1015.4
20260506103010 21 336 0.0 4.8 0.00 0.00 0.00 82 1015.7
20260506102825 21 330 0.0 4.8 0.00 0.00 0.00 83 1015.3
20260506102357 21 282 0.0 3.2 0.00 0.00 0.00 83 1015.2
20260506101902 21 247 0.0 6.4 0.00 0.00 0.00 83 1015.2
20260506101550 21 247 0.0 6.4 0.00 0.00 0.00 82 1015.1
20260506101505 21 248 0.0 6.4 0.00 0.00 0.00 82 1015.4
20260506101324 21 246 0.0 6.4 0.00 0.00 0.00 82 1015.2
20260506100829 21 263 0.0 6.4 0.00 0.00 0.00 82 1015.3
20260506100336 21 272 0.0 1.6 0.00 0.00 0.00 82 1015.3
20260506100005 21 84 0.0 4.8 0.00 0.00 0.00 82 1015.7
20260506095825 21 88 0.0 4.8 0.00 0.00 0.00 82 1015.3
20260506095332 21 213 0.0 4.8 0.00 0.00 0.00 82 1015.3
20260506094839 21 276 0.0 6.4 0.00 0.00 0.00 82 1015.1
20260506094507 21 207 0.0 6.4 0.00 0.00 0.00 82 1015.1
20260506094503 21 207 0.0 6.4 0.00 0.00 0.00 81 1015.4
20260506094347 21 277 0.0 6.4 0.00 0.00 0.00 82 1015.1
20260506093853 21 321 0.0 8.0 0.00 0.00 0.00 81 1015.2
20260506093336 21 60 0.0 8.0 0.00 0.00 0.00 81 1015.1
20260506093018 21 267 0.0 8.0 0.00 0.00 0.00 81 1015.1
20260506093003 21 264 0.0 8.0 0.00 0.00 0.00 81 1015.4
20260506092824 21 240 1.6 8.0 0.00 0.00 0.00 81 1015.1
20260506092350 21 296 0.0 4.8 0.00 0.00 0.00 81 1015.2
20260506091837 21 306 0.0 4.8 0.00 0.00 0.00 81 1015.3
20260506091508 21 250 0.0 8.0 0.00 0.00 0.00 81 1015.2
20260506091504 21 252 0.0 8.0 0.00 0.00 0.00 80 1015.5
20260506091345 21 260 0.0 8.0 0.00 0.00 0.00 81 1015.2
20260506090852 21 244 1.6 8.0 0.00 0.00 0.00 81 1015.2
20260506090338 21 254 0.0 3.2 0.00 0.00 0.00 81 1015.2
20260506090031 21 67 0.0 4.8 0.00 0.00 0.00 80 1015.0
20260506090004 21 63 0.0 4.8 0.00 0.00 0.00 80 1015.2
20260506085827 21 67 0.0 4.8 0.00 0.00 0.00 80 1015.0
20260506085333 21 238 0.0 11.3 0.00 0.00 0.00 80 1014.9
20260506084820 21 221 0.0 16.1 0.00 0.00 0.00 80 1015.0
20260506084548 21 22 0.0 16.1 0.00 0.00 0.00 80 1014.9
20260506084503 21 225 0.0 16.1 0.00 0.00 0.00 79 1015.3
20260506084328 21 280 0.0 16.1 0.00 0.00 0.00 80 1015.0
20260506083832 21 260 1.6 6.4 0.00 0.00 0.00 80 1015.1
20260506083335 21 63 1.6 4.8 0.00 0.00 0.00 80 1015.2
20260506083028 21 245 0.0 8.0 0.00 0.00 0.00 80 1015.1
20260506083003 21 249 0.0 8.0 0.00 0.00 0.00 79 1015.4
20260506082839 21 188 0.0 8.0 0.00 0.00 0.00 80 1015.0
20260506082341 21 249 1.6 8.0 0.00 0.00 0.00 79 1015.1
20260506081824 21 323 0.0 16.1 0.00 0.00 0.00 79 1015.1
20260506081550 21 236 1.6 16.1 0.00 0.00 0.00 79 1015.0
20260506081503 21 272 0.0 16.1 0.00 0.00 0.00 79 1015.3
20260506081328 21 79 3.2 16.1 0.00 0.00 0.00 79 1015.1
20260506080832 21 264 1.6 8.0 0.00 0.00 0.00 79 1015.0
20260506080335 21 275 0.0 9.7 0.00 0.00 0.00 79 1014.9
20260506073357 21 248 3.2 14.5 0.00 0.00 0.00 79 1015.1
20260506073036 21 264 1.6 14.5 0.00 0.00 0.00 79 1015.0
20260506073003 21 266 1.6 14.5 0.00 0.00 0.00 78 1015.4
20260506072837 21 256 1.6 14.5 0.00 0.00 0.00 79 1015.1
20260506072359 21 287 1.6 12.9 0.00 0.00 0.00 79 1015.2
20260506071822 21 246 1.6 14.5 0.00 0.00 0.00 79 1015.2
20260506071600 21 103 0.0 14.5 0.00 0.00 0.00 79 1015.1
20260506071505 21 264 0.0 14.5 0.00 0.00 0.00 78 1015.4
20260506071326 21 282 0.0 14.5 0.00 0.00 0.00 79 1015.1
20260506070830 21 241 0.0 6.4 0.00 0.00 0.00 79 1015.0
20260506070352 21 12 0.0 9.7 0.00 0.00 0.00 78 1014.9
20260506062337 21 164 3.2 16.1 0.00 0.00 0.00 76 1015.5
20260506061820 21 239 1.6 16.1 0.00 0.00 0.00 76 1015.6
20260506061532 21 233 1.6 12.9 0.00 0.00 0.00 76 1015.7
20260506061504 21 23 1.6 12.9 0.00 0.00 0.00 75 1016.0
20260506061324 21 165 0.0 12.9 0.00 0.00 0.00 76 1015.8
20260506060848 21 48 1.6 11.3 0.00 0.00 0.00 75 1015.8
20260506060331 21 336 1.6 11.3 0.00 0.00 0.00 75 1015.8
20260506051325 21 234 0.0 9.7 0.00 0.00 0.00 73 1015.9
20260506050829 21 250 0.0 6.4 0.00 0.00 0.00 73 1016.0
20260506050332 21 203 1.6 9.7 0.00 0.00 0.00 73 1016.0
20260506044822 21 241 1.6 9.7 0.00 0.00 0.00 72 1016.0
20260506044553 21 29 1.6 9.7 0.00 0.00 0.00 72 1016.0
20260506044504 21 245 0.0 9.7 0.00 0.00 0.00 72 1016.3
20260506044324 21 205 1.6 8.0 0.00 0.00 0.00 72 1016.0
20260506043829 21 47 1.6 6.4 0.00 0.00 0.00 72 1016.0
20260506043333 21 244 1.6 6.4 0.00 0.00 0.00 72 1016.0
20260506043035 21 15 0.0 9.7 0.00 0.00 0.00 72 1016.1
20260506043004 21 218 0.0 9.7 0.00 0.00 0.00 71 1016.3
20260506042838 21 185 0.0 9.7 0.00 0.00 0.00 71 1016.1
20260506042319 21 238 1.6 9.7 0.00 0.00 0.00 71 1016.1
20260506041850 21 311 1.6 9.7 0.00 0.00 0.00 71 1016.3
20260506041506 21 227 1.6 9.7 0.00 0.00 0.00 71 1016.5
20260506041503 21 243 1.6 9.7 0.00 0.00 0.00 72 1016.3
20260506041332 21 234 1.6 9.7 0.00 0.00 0.00 71 1016.3
20260506040836 21 175 0.0 11.3 0.00 0.00 0.00 71 1016.3
20260506040340 21 69 0.0 11.3 0.00 0.00 0.00 72 1016.3
20260506040041 21 222 1.6 16.1 0.00 0.00 0.00 71 1016.3
20260506040004 21 44 1.6 16.1 0.00 0.00 0.00 71 1016.6
20260506035837 21 190 3.2 16.1 0.00 0.00 0.00 72 1016.3
20260506035319 21 61 1.6 11.3 0.00 0.00 0.00 72 1016.3
20260506034824 21 244 1.6 11.3 0.00 0.00 0.00 72 1016.3
20260506034529 21 173 0.0 14.5 0.00 0.00 0.00 72 1016.2
20260506034506 21 43 0.0 14.5 0.00 0.00 0.00 71 1016.5
20260506034327 21 265 1.6 14.5 0.00 0.00 0.00 72 1016.3
20260506033827 21 221 4.8 14.5 0.00 0.00 0.00 71 1016.3
20260506033328 21 231 1.6 9.7 0.00 0.00 0.00 71 1016.3
20260506033006 21 116 1.6 9.7 0.00 0.00 0.00 71 1016.4
20260506032830 21 69 1.6 11.3 0.00 0.00 0.00 71 1016.4
20260506032335 21 110 1.6 11.3 0.00 0.00 0.00 70 1016.4
20260506031839 21 50 1.6 12.9 0.00 0.00 0.00 71 1016.3
20260506031837 21 117 0.0 9.7 0.00 0.00 0.00 70 1016.6
20260506031552 21 265 1.6 9.7 0.00 0.00 0.00 70 1016.4
20260506031322 21 248 0.0 9.7 0.00 0.00 0.00 71 1016.3
20260506030825 21 248 0.0 9.7 0.00 0.00 0.00 71 1016.4
20260506030329 21 269 1.6 11.3 0.00 0.00 0.00 71 1016.4
20260506030033 21 65 1.6 11.3 0.00 0.00 0.00 71 1016.3
20260506025833 21 266 3.2 11.3 0.00 0.00 0.00 71 1016.3
20260506025335 21 293 1.6 11.3 0.00 0.00 0.00 71 1016.2
20260506024839 21 44 0.0 9.7 0.00 0.00 0.00 72 1016.2
20260506024659 21 236 1.6 9.7 0.00 0.00 0.00 71 1016.4
20260506024523 21 221 1.6 9.7 0.00 0.00 0.00 71 1016.3
20260506024342 21 236 1.6 6.4 0.00 0.00 0.00 72 1016.3
20260506023824 21 234 1.6 9.7 0.00 0.00 0.00 72 1016.3
20260506023346 21 267 0.0 16.1 0.00 0.00 0.00 73 1016.3
20260506023029 21 203 3.2 16.1 0.00 0.00 0.00 72 1016.3
20260506023021 21 23 3.2 16.1 0.00 0.00 0.00 73 1016.1
20260506022830 21 236 1.6 14.5 0.00 0.00 0.00 73 1016.1
20260506022353 21 200 1.6 11.3 0.00 0.00 0.00 73 1016.2
20260506021836 21 267 1.6 9.7 0.00 0.00 0.00 72 1016.2
20260506021551 21 276 1.6 9.7 0.00 0.00 0.00 72 1016.1
20260506021509 21 224 1.6 9.7 0.00 0.00 0.00 72 1016.3
20260506021320 21 205 1.6 9.7 0.00 0.00 0.00 72 1016.1
20260506020823 21 233 3.2 9.7 0.00 0.00 0.00 72 1016.2
20260506020327 21 263 1.6 8.0 0.00 0.00 0.00 72 1016.1
20260506020026 21 265 0.0 6.4 0.00 0.00 0.00 73 1016.0
20260506020013 21 268 0.0 6.4 0.00 0.00 0.00 72 1016.3
20260506015832 21 37 1.6 6.4 0.00 0.00 0.00 72 1016.0
20260506015335 21 243 1.6 11.3 0.00 0.00 0.00 72 1016.0
20260506014819 21 246 3.2 11.3 0.00 0.00 0.00 72 1016.0
20260506014514 21 298 0.0 11.3 0.00 0.00 0.00 71 1016.0
20260506014509 21 252 1.6 11.3 0.00 0.00 0.00 71 1016.3
20260506014322 21 57 1.6 11.3 0.00 0.00 0.00 71 1016.2
20260506013826 21 319 1.6 11.3 0.00 0.00 0.00 71 1016.2
20260506013327 21 69 0.0 8.0 0.00 0.00 0.00 71 1016.1
20260506013049 21 199 0.0 4.8 0.00 0.00 0.00 71 1016.2
20260506013007 21 77 0.0 4.8 0.00 0.00 0.00 70 1016.4
20260506012849 21 242 0.0 4.8 0.00 0.00 0.00 71 1016.2
20260506012331 21 321 1.6 8.0 0.00 0.00 0.00 70 1016.2
20260506011835 21 292 1.6 8.0 0.00 0.00 0.00 70 1016.3
20260506011531 21 242 0.0 6.4 0.00 0.00 0.00 70 1016.2
20260506011524 21 244 0.0 6.4 0.00 0.00 0.00 69 1016.4
20260506011337 21 40 0.0 6.4 0.00 0.00 0.00 70 1016.2
20260506010831 21 234 1.6 6.4 0.00 0.00 0.00 70 1016.1
20260506010335 21 241 0.0 9.7 0.00 0.00 0.00 70 1016.0
20260506010116 21 196 0.0 9.7 0.00 0.00 0.00 70 1016.0
20260506010013 21 190 0.0 9.7 0.00 0.00 0.00 70 1016.2
20260506005820 21 325 0.0 9.7 0.00 0.00 0.00 70 1016.0
20260506005350 21 299 0.0 8.0 0.00 0.00 0.00 71 1015.9
20260506004832 21 18 0.0 9.7 0.00 0.00 0.00 70 1015.6
20260506004534 21 234 0.0 9.7 0.00 0.00 0.00 70 1015.6
20260506004511 21 236 0.0 9.7 0.00 0.00 0.00 70 1016.0
20260506004336 21 188 1.6 9.7 0.00 0.00 0.00 70 1015.6
20260506003821 21 350 1.6 6.4 0.00 0.00 0.00 70 1015.6
20260506003324 21 32 0.0 6.4 0.00 0.00 0.00 71 1015.6
20260506003015 21 8 0.0 6.4 0.00 0.00 0.00 71 1015.9
20260506003012 21 292 0.0 6.4 0.00 0.00 0.00 71 1015.5
20260506002826 21 41 0.0 6.4 0.00 0.00 0.00 71 1015.5
20260506002329 21 49 0.0 4.8 0.00 0.00 0.00 71 1015.6
20260506001832 21 109 0.0 4.8 0.00 0.00 0.00 70 1015.7
20260506001556 21 55 0.0 4.8 0.00 0.00 0.00 70 1015.7
20260506001512 21 49 0.0 4.8 0.00 0.00 0.00 69 1016.1
20260506001333 22 13 0.0 4.8 0.00 0.00 0.00 69 1015.7
20260506000836 22 37 0.0 9.7 0.00 0.00 0.00 69 1015.6
20260506000319 22 338 0.0 9.7 0.00 0.00 0.00 68 1015.7
20260506000051 21 180 0.0 9.7 0.00 0.00 0.00 68 1015.6
20260506000014 21 51 0.0 8.0 0.00 0.00 0.00 68 1016.0
20260505235825 22 238 0.0 8.0 0.00 0.00 0.00 67 1015.7
20260505235327 22 173 0.0 9.7 0.00 0.00 0.00 67 1015.8
20260505234851 22 236 1.6 9.7 0.00 0.00 0.00 67 1015.9
20260505234557 22 198 0.0 8.0 0.00 0.00 0.00 67 1015.8
20260505234515 22 223 0.0 11.3 0.00 0.00 0.00 66 1016.2
20260505234333 22 196 0.0 11.3 0.00 0.00 0.00 67 1015.8
20260505233837 22 252 1.6 11.3 0.00 0.00 0.00 67 1015.8
20260505233321 22 307 1.6 9.7 0.00 0.00 0.00 67 1015.9
20260505233045 22 252 1.6 11.3 0.00 0.00 0.00 67 1015.8
20260505233008 22 48 1.6 11.3 0.00 0.00 0.00 66 1016.2
20260505232853 22 230 1.6 11.3 0.00 0.00 0.00 67 1015.8
20260505232335 22 238 1.6 11.3 0.00 0.00 0.00 67 1015.8
20260505231819 22 67 0.0 6.4 0.00 0.00 0.00 67 1015.7
20260505231532 22 75 1.6 6.4 0.00 0.00 0.00 67 1016.0
20260505231522 22 203 1.6 6.4 0.00 0.00 0.00 67 1015.6
20260505231322 22 210 1.6 6.4 0.00 0.00 0.00 67 1015.6
20260505230826 22 220 0.0 4.8 0.00 0.00 0.00 66 1015.6
20260505230329 22 342 0.0 12.9 0.00 0.00 0.00 66 1015.7
20260505230033 22 86 0.0 12.9 0.00 0.00 0.00 67 1015.6
20260505230023 22 191 0.0 12.9 0.00 0.00 0.00 66 1016.0
20260505225833 22 23 1.6 12.9 0.00 0.00 0.00 66 1015.7
20260505225336 22 57 1.6 14.5 0.00 0.00 0.00 66 1015.8
20260505224821 22 25 1.6 9.7 0.00 0.00 0.00 66 1015.6
20260505224541 22 96 0.0 11.3 0.00 0.00 0.00 66 1015.5
20260505224515 22 58 0.0 11.3 0.00 0.00 0.00 66 1016.0
20260505224325 22 239 1.6 11.3 0.00 0.00 0.00 67 1015.6
20260505223829 22 248 3.2 12.9 0.00 0.00 0.00 66 1015.6
20260505223333 22 230 0.0 14.5 0.00 0.00 0.00 66 1015.7
20260505223049 22 238 1.6 14.5 0.00 0.00 0.00 66 1015.6
20260505223017 22 5 1.6 14.5 0.00 0.00 0.00 65 1016.0
20260505222857 22 319 1.6 12.9 0.00 0.00 0.00 65 1015.7
20260505222338 23 138 0.0 12.9 0.00 0.00 0.00 66 1015.7
20260505221822 23 254 1.6 12.9 0.00 0.00 0.00 66 1015.7
20260505221531 23 184 1.6 9.7 0.00 0.00 0.00 67 1015.7
20260505221510 23 65 0.0 9.7 0.00 0.00 0.00 67 1016.1
20260505221325 23 53 3.2 9.7 0.00 0.00 0.00 68 1015.8
20260505220829 23 19 1.6 14.5 0.00 0.00 0.00 67 1015.7
20260505220330 23 239 3.2 14.5 0.00 0.00 0.00 67 1015.7
20260505220048 23 241 0.0 16.1 0.00 0.00 0.00 66 1015.8
20260505220014 23 207 0.0 16.1 0.00 0.00 0.00 66 1016.2
20260505215855 23 225 1.6 16.1 0.00 0.00 0.00 67 1015.9
20260505215336 23 240 1.6 16.1 0.00 0.00 0.00 67 1016.0
20260505214819 23 243 1.6 14.5 0.00 0.00 0.00 66 1015.9
20260505214525 23 76 1.6 14.5 0.00 0.00 0.00 65 1015.8
20260505214517 23 20 1.6 14.5 0.00 0.00 0.00 64 1016.2
20260505214323 23 238 1.6 14.5 0.00 0.00 0.00 65 1015.8
20260505213826 23 46 1.6 9.7 0.00 0.00 0.00 65 1016.0
20260505213329 23 315 1.6 9.7 0.00 0.00 0.00 64 1015.8
20260505213031 23 32 0.0 12.9 0.00 0.00 0.00 64 1015.7
20260505213022 23 307 0.0 14.5 0.00 0.00 0.00 63 1016.1
20260505212834 23 254 3.2 12.9 0.00 0.00 0.00 64 1015.8
20260505212337 23 188 4.8 12.9 0.00 0.00 0.00 64 1015.9
20260505211821 23 207 0.0 17.7 0.00 0.00 0.00 63 1016.0
20260505211541 23 248 1.6 17.7 0.00 0.00 0.00 63 1015.9
20260505211516 23 283 1.6 17.7 0.00 0.00 0.00 62 1016.4
20260505211325 24 242 3.2 17.7 0.00 0.00 0.00 62 1016.0
20260505210826 24 287 1.6 14.5 0.00 0.00 0.00 62 1016.0
20260505210330 24 219 1.6 14.5 0.00 0.00 0.00 63 1016.1
20260505210052 23 66 1.6 12.9 0.00 0.00 0.00 62 1016.1
20260505210017 23 282 1.6 11.3 0.00 0.00 0.00 61 1016.4
20260505205834 24 360 1.6 12.9 0.00 0.00 0.00 62 1016.2
20260505205337 24 221 1.6 6.4 0.00 0.00 0.00 62 1016.1
20260505204821 25 225 1.6 6.4 0.00 0.00 0.00 60 1015.9
20260505204606 24 164 1.6 11.3 0.00 0.00 0.00 58 1016.0
20260505204518 24 77 1.6 9.7 0.00 0.00 0.00 58 1016.3
20260505204502 24 16 1.6 11.3 0.00 0.00 0.00 59 1016.0
20260505204324 25 215 1.6 11.3 0.00 0.00 0.00 59 1016.0
20260505203827 25 41 1.6 11.3 0.00 0.00 0.00 59 1016.1
20260505203350 25 258 4.8 14.5 0.00 0.00 0.00 56 1016.1
20260505203043 25 198 3.2 14.5 0.00 0.00 0.00 58 1016.1
20260505203004 25 258 3.2 14.5 0.00 0.00 0.00 58 1016.5
20260505202853 25 236 3.2 14.5 0.00 0.00 0.00 59 1016.3
20260505202355 25 86 1.6 11.3 0.00 0.00 0.00 59 1016.3
20260505201857 25 355 1.6 12.9 0.00 0.00 0.00 59 1016.3
20260505201546 25 308 1.6 12.9 0.00 0.00 0.00 59 1016.3
20260505201512 25 67 1.6 11.3 0.00 0.00 0.00 59 1016.7